| time (UTC) | temp F | wind direction | speed MPH | gust MPH | rain 1hr in | rain 24hr in | rain mn in | humidity % | barometer mb |
| 20260901165530 | 70 | 204 | 10.0 | 15.0 | 0.00 | 0.00 | 0.00 | 40 | 1007.8 |
| 20260901165033 | 71 | 207 | 10.0 | 18.0 | 0.00 | 0.00 | 0.00 | 39 | 1007.6 |
| 20260901164551 | 70 | 207 | 11.0 | 18.0 | 0.00 | 0.00 | 0.00 | 40 | 1007.7 |
| 20260901164030 | 70 | 206 | 12.0 | 18.0 | 0.00 | 0.00 | 0.00 | 40 | 1007.8 |
| 20260901163530 | 69 | 206 | 13.0 | 19.0 | 0.00 | 0.00 | 0.00 | 40 | 1007.8 |
| 20260901163105 | 69 | 207 | 13.0 | 19.0 | 0.00 | 0.00 | 0.00 | 41 | 1008.0 |
| 20260901162532 | 69 | 216 | 11.0 | 19.0 | 0.00 | 0.00 | 0.00 | 40 | 1008.0 |
| 20260901162031 | 69 | 216 | 11.0 | 20.0 | 0.00 | 0.00 | 0.00 | 39 | 1007.9 |
| 20260901161555 | 69 | 219 | 12.0 | 20.0 | 0.00 | 0.00 | 0.00 | 40 | 1007.8 |
| 20260901161034 | 68 | 192 | 11.0 | 17.0 | 0.00 | 0.00 | 0.00 | 41 | 1007.7 |
| 20260901160530 | 68 | 191 | 11.0 | 20.0 | 0.00 | 0.00 | 0.00 | 42 | 1007.6 |
| 20260901160054 | 67 | 186 | 13.0 | 20.0 | 0.00 | 0.00 | 0.00 | 44 | 1007.6 |
| 20260901155531 | 66 | 169 | 12.0 | 17.0 | 0.00 | 0.00 | 0.00 | 45 | 1007.7 |
| 20260901155031 | 66 | 157 | 11.0 | 17.0 | 0.00 | 0.00 | 0.00 | 46 | 1007.6 |
| 20260901154549 | 65 | 143 | 10.0 | 14.0 | 0.00 | 0.00 | 0.00 | 49 | 1007.6 |
| 20260901154031 | 64 | 136 | 9.0 | 14.0 | 0.00 | 0.00 | 0.00 | 50 | 1007.5 |
| 20260901153531 | 64 | 136 | 8.0 | 14.0 | 0.00 | 0.00 | 0.00 | 50 | 1007.5 |
| 20260901153103 | 65 | 136 | 7.0 | 14.0 | 0.00 | 0.00 | 0.00 | 49 | 1007.5 |
| 20260901152531 | 65 | 132 | 10.0 | 15.0 | 0.00 | 0.00 | 0.00 | 48 | 1007.6 |
| 20260901152031 | 64 | 125 | 9.0 | 15.0 | 0.00 | 0.00 | 0.00 | 49 | 1007.5 |
| 20260901151557 | 64 | 122 | 10.0 | 15.0 | 0.00 | 0.00 | 0.00 | 48 | 1007.5 |
| 20260901151031 | 63 | 94 | 8.0 | 13.0 | 0.00 | 0.00 | 0.00 | 48 | 1007.3 |
| 20260901150531 | 63 | 93 | 9.0 | 13.0 | 0.00 | 0.00 | 0.00 | 47 | 1007.5 |
| 20260901150050 | 63 | 86 | 5.0 | 10.0 | 0.00 | 0.00 | 0.00 | 48 | 1007.4 |
| 20260901145535 | 63 | 63 | 6.0 | 10.0 | 0.00 | 0.00 | 0.00 | 49 | 1007.3 |
| 20260901145031 | 62 | 63 | 5.0 | 10.0 | 0.00 | 0.00 | 0.00 | 50 | 1007.3 |
| 20260901144551 | 61 | 63 | 3.0 | 6.0 | 0.00 | 0.00 | 0.00 | 51 | 1007.3 |
| 20260901144031 | 60 | 63 | 3.0 | 6.0 | 0.00 | 0.00 | 0.00 | 52 | 1007.2 |
| 20260901143531 | 60 | 0 | 0.0 | 0.0 | 0.00 | 0.00 | 0.00 | 53 | 1006.9 |
| 20260901143053 | 60 | 0 | 0.0 | 3.0 | 0.00 | 0.00 | 0.00 | 53 | 1007.0 |
| 20260901142532 | 59 | 0 | 0.0 | 5.0 | 0.00 | 0.00 | 0.00 | 55 | 1006.9 |
| 20260901142031 | 59 | 63 | 2.0 | 5.0 | 0.00 | 0.00 | 0.00 | 56 | 1007.0 |
| 20260901141557 | 58 | 63 | 3.0 | 5.0 | 0.00 | 0.00 | 0.00 | 56 | 1006.9 |
| 20260901141034 | 58 | 0 | 1.0 | 4.0 | 0.00 | 0.00 | 0.00 | 57 | 1006.8 |
| 20260901140535 | 57 | 63 | 2.0 | 4.0 | 0.00 | 0.00 | 0.00 | 57 | 1006.7 |
| 20260901140051 | 57 | 63 | 0.0 | 3.0 | 0.00 | 0.00 | 0.00 | 56 | 1006.7 |
| 20260901135537 | 57 | 63 | 1.0 | 4.0 | 0.00 | 0.00 | 0.00 | 55 | 1006.7 |
| 20260901135036 | 58 | 0 | 0.0 | 4.0 | 0.00 | 0.00 | 0.00 | 55 | 1006.8 |
| 20260901134551 | 58 | 63 | 2.0 | 4.0 | 0.00 | 0.00 | 0.00 | 55 | 1006.7 |
| 20260901134040 | 58 | 63 | 2.0 | 4.0 | 0.00 | 0.00 | 0.00 | 55 | 1006.7 |
| 20260901133535 | 58 | 63 | 2.0 | 4.0 | 0.00 | 0.00 | 0.00 | 56 | 1006.6 |
| 20260901133050 | 58 | 63 | 1.0 | 4.0 | 0.00 | 0.00 | 0.00 | 54 | 1006.7 |
| 20260901132535 | 58 | 0 | 0.0 | 1.0 | 0.00 | 0.00 | 0.00 | 54 | 1006.7 |
| 20260901132035 | 58 | 0 | 0.0 | 1.0 | 0.00 | 0.00 | 0.00 | 53 | 1006.7 |
| 20260901131600 | 58 | 0 | 0.0 | 2.0 | 0.00 | 0.00 | 0.00 | 53 | 1006.6 |
| 20260901131035 | 58 | 0 | 0.0 | 2.0 | 0.00 | 0.00 | 0.00 | 53 | 1006.7 |
| 20260901130535 | 58 | 63 | 0.0 | 4.0 | 0.00 | 0.00 | 0.00 | 52 | 1006.7 |
| 20260901130052 | 59 | 0 | 1.0 | 4.0 | 0.00 | 0.00 | 0.00 | 52 | 1006.7 |
| 20260901125538 | 58 | 63 | 2.0 | 4.0 | 0.00 | 0.00 | 0.00 | 54 | 1006.8 |
| 20260901125035 | 57 | 0 | 0.0 | 3.0 | 0.00 | 0.00 | 0.00 | 53 | 1006.7 |
| 20260901124550 | 57 | 63 | 2.0 | 4.0 | 0.00 | 0.00 | 0.00 | 51 | 1006.5 |
| 20260901124035 | 57 | 0 | 0.0 | 4.0 | 0.00 | 0.00 | 0.00 | 52 | 1006.5 |
| 20260901123532 | 56 | 63 | 2.0 | 4.0 | 0.00 | 0.00 | 0.00 | 54 | 1006.5 |
| 20260901123104 | 56 | 63 | 0.0 | 4.0 | 0.00 | 0.00 | 0.00 | 50 | 1006.6 |
| 20260901122535 | 56 | 63 | 1.0 | 3.0 | 0.00 | 0.00 | 0.00 | 51 | 1006.7 |
| 20260901122036 | 56 | 0 | 0.0 | 0.0 | 0.00 | 0.00 | 0.00 | 51 | 1006.8 |
| 20260901121551 | 55 | 0 | 0.0 | 0.0 | 0.00 | 0.00 | 0.00 | 52 | 1006.7 |
| 20260901121035 | 55 | 0 | 0.0 | 2.0 | 0.00 | 0.00 | 0.00 | 51 | 1006.8 |
| 20260901120534 | 55 | 0 | 0.0 | 2.0 | 0.00 | 0.00 | 0.00 | 52 | 1006.7 |
| 20260901120051 | 55 | 0 | 0.0 | 0.0 | 0.00 | 0.00 | 0.00 | 52 | 1006.7 |
| 20260901115536 | 55 | 0 | 0.0 | 0.0 | 0.00 | 0.00 | 0.00 | 52 | 1006.7 |
| 20260901115035 | 55 | 0 | 0.0 | 2.0 | 0.00 | 0.00 | 0.00 | 49 | 1006.7 |
| 20260901114548 | 54 | 0 | 0.0 | 2.0 | 0.00 | 0.00 | 0.00 | 51 | 1006.7 |
| 20260901114038 | 54 | 0 | 0.0 | 1.0 | 0.00 | 0.00 | 0.00 | 50 | 1006.7 |
| 20260901113537 | 54 | 0 | 0.0 | 2.0 | 0.00 | 0.00 | 0.00 | 49 | 1006.7 |
| 20260901113100 | 54 | 0 | 0.0 | 2.0 | 0.00 | 0.00 | 0.00 | 48 | 1006.7 |
| 20260901112535 | 55 | 0 | 0.0 | 2.0 | 0.00 | 0.00 | 0.00 | 46 | 1006.7 |
| 20260901112038 | 55 | 0 | 0.0 | 3.0 | 0.00 | 0.00 | 0.00 | 46 | 1006.7 |
| 20260901111552 | 56 | 0 | 1.0 | 3.0 | 0.00 | 0.00 | 0.00 | 44 | 1006.8 |
| 20260901111035 | 56 | 63 | 1.0 | 3.0 | 0.00 | 0.00 | 0.00 | 46 | 1006.8 |
| 20260901110535 | 56 | 0 | 0.0 | 0.0 | 0.00 | 0.00 | 0.00 | 43 | 1006.9 |
| 20260901105536 | 56 | 0 | 0.0 | 2.0 | 0.00 | 0.00 | 0.00 | 43 | 1006.9 |
| 20260901105038 | 56 | 0 | 0.0 | 2.0 | 0.00 | 0.00 | 0.00 | 44 | 1006.9 |
| 20260901104602 | 56 | 0 | 0.0 | 2.0 | 0.00 | 0.00 | 0.00 | 43 | 1007.0 |
| 20260901104035 | 56 | 0 | 0.0 | 2.0 | 0.00 | 0.00 | 0.00 | 42 | 1007.0 |
| 20260901103535 | 56 | 0 | 0.0 | 3.0 | 0.00 | 0.00 | 0.00 | 43 | 1007.0 |
| 20260901103054 | 56 | 63 | 0.0 | 3.0 | 0.00 | 0.00 | 0.00 | 42 | 1006.9 |
| 20260901102535 | 56 | 63 | 1.0 | 3.0 | 0.00 | 0.00 | 0.00 | 42 | 1007.0 |
| 20260901102035 | 56 | 0 | 0.0 | 2.0 | 0.00 | 0.00 | 0.00 | 41 | 1006.9 |
| 20260901101551 | 56 | 0 | 0.0 | 0.0 | 0.00 | 0.00 | 0.00 | 41 | 1006.8 |
| 20260901101034 | 56 | 0 | 0.0 | 1.0 | 0.00 | 0.00 | 0.00 | 40 | 1006.7 |
| 20260901100534 | 56 | 0 | 0.0 | 3.0 | 0.00 | 0.00 | 0.00 | 40 | 1006.7 |
| 20260901100051 | 56 | 0 | 0.0 | 3.0 | 0.00 | 0.00 | 0.00 | 39 | 1006.6 |
| 20260901095535 | 57 | 63 | 1.0 | 2.0 | 0.00 | 0.00 | 0.00 | 38 | 1006.6 |
| 20260901095035 | 58 | 0 | 0.0 | 2.0 | 0.00 | 0.00 | 0.00 | 38 | 1006.8 |
| 20260901094550 | 58 | 0 | 0.0 | 2.0 | 0.00 | 0.00 | 0.00 | 37 | 1006.8 |
| 20260901094038 | 59 | 0 | 0.0 | 1.0 | 0.00 | 0.00 | 0.00 | 37 | 1006.9 |
| 20260901093536 | 59 | 0 | 0.0 | 1.0 | 0.00 | 0.00 | 0.00 | 36 | 1006.9 |
| 20260901093056 | 60 | 0 | 0.0 | 1.0 | 0.00 | 0.00 | 0.00 | 36 | 1006.7 |
| 20260901092538 | 60 | 0 | 0.0 | 2.0 | 0.00 | 0.00 | 0.00 | 35 | 1006.9 |
| 20260901092035 | 61 | 0 | 0.0 | 2.0 | 0.00 | 0.00 | 0.00 | 34 | 1006.9 |
| 20260901091550 | 61 | 0 | 0.0 | 3.0 | 0.00 | 0.00 | 0.00 | 34 | 1006.9 |
| 20260901091038 | 62 | 0 | 0.0 | 3.0 | 0.00 | 0.00 | 0.00 | 34 | 1007.0 |
| 20260901090536 | 62 | 0 | 0.0 | 0.0 | 0.00 | 0.00 | 0.00 | 34 | 1006.9 |
| 20260901090050 | 62 | 0 | 0.0 | 3.0 | 0.00 | 0.00 | 0.00 | 33 | 1007.0 |
| 20260901085535 | 63 | 0 | 0.0 | 6.0 | 0.00 | 0.00 | 0.00 | 33 | 1006.9 |
| 20260901085035 | 62 | 0 | 1.0 | 6.0 | 0.00 | 0.00 | 0.00 | 33 | 1006.8 |
| 20260901084602 | 63 | 63 | 2.0 | 6.0 | 0.00 | 0.00 | 0.00 | 32 | 1006.9 |
| 20260901084038 | 64 | 63 | 4.0 | 6.0 | 0.00 | 0.00 | 0.00 | 31 | 1006.8 |
| 20260901083535 | 66 | 63 | 2.0 | 4.0 | 0.00 | 0.00 | 0.00 | 30 | 1006.9 |
| 20260901083052 | 66 | 63 | 1.0 | 10.0 | 0.00 | 0.00 | 0.00 | 30 | 1006.9 |
| 20260901082535 | 66 | 63 | 3.0 | 12.0 | 0.00 | 0.00 | 0.00 | 30 | 1006.8 |
| 20260901082034 | 66 | 63 | 3.0 | 12.0 | 0.00 | 0.00 | 0.00 | 30 | 1006.9 |
| 20260901081550 | 66 | 63 | 6.0 | 12.0 | 0.00 | 0.00 | 0.00 | 30 | 1006.9 |
| 20260901081048 | 66 | 0 | 1.0 | 6.0 | 0.00 | 0.00 | 0.00 | 30 | 1006.7 |
| 20260901080535 | 66 | 40 | 3.0 | 6.0 | 0.00 | 0.00 | 0.00 | 30 | 1006.6 |
| 20260901075536 | 66 | 40 | 3.0 | 6.0 | 0.00 | 0.00 | 0.00 | 30 | 1006.7 |
| 20260901075036 | 66 | 40 | 1.0 | 7.0 | 0.00 | 0.00 | 0.00 | 29 | 1006.6 |
| 20260901074558 | 66 | 40 | 2.0 | 7.0 | 0.00 | 0.00 | 0.00 | 29 | 1006.6 |
| 20260901074038 | 66 | 40 | 4.0 | 6.0 | 0.00 | 0.00 | 0.00 | 29 | 1006.6 |
| 20260901073535 | 66 | 40 | 4.0 | 6.0 | 0.00 | 0.00 | 0.00 | 29 | 1006.8 |
| 20260901073102 | 66 | 40 | 2.0 | 4.0 | 0.00 | 0.00 | 0.00 | 29 | 1006.7 |
| 20260901072535 | 66 | 40 | 2.0 | 4.0 | 0.00 | 0.00 | 0.00 | 29 | 1006.8 |
| 20260901072035 | 66 | 40 | 1.0 | 4.0 | 0.00 | 0.00 | 0.00 | 29 | 1007.0 |
| 20260901071559 | 66 | 0 | 0.0 | 0.0 | 0.00 | 0.00 | 0.00 | 30 | 1007.0 |
| 20260901071034 | 66 | 0 | 0.0 | 0.0 | 0.00 | 0.00 | 0.00 | 30 | 1006.9 |
| 20260901070535 | 66 | 0 | 0.0 | 1.0 | 0.00 | 0.00 | 0.00 | 30 | 1007.1 |
| 20260901070050 | 66 | 0 | 0.0 | 2.0 | 0.00 | 0.00 | 0.00 | 29 | 1007.0 |
| 20260901065536 | 66 | 0 | 0.0 | 2.0 | 0.00 | 0.00 | 0.00 | 30 | 1007.1 |
| 20260901065035 | 65 | 0 | 0.0 | 1.0 | 0.00 | 0.00 | 0.00 | 31 | 1007.1 |
| 20260901064557 | 64 | 0 | 0.0 | 1.0 | 0.00 | 0.00 | 0.00 | 30 | 1007.2 |
| 20260901064036 | 64 | 0 | 0.0 | 1.0 | 0.00 | 0.00 | 0.00 | 30 | 1007.3 |
| 20260901063536 | 64 | 0 | 0.0 | 0.0 | 0.00 | 0.00 | 0.00 | 30 | 1007.4 |
| 20260901063051 | 64 | 0 | 0.0 | 0.0 | 0.00 | 0.00 | 0.00 | 30 | 1007.4 |
| 20260901062537 | 65 | 0 | 0.0 | 0.0 | 0.00 | 0.00 | 0.00 | 30 | 1007.4 |
| 20260901062040 | 65 | 0 | 0.0 | 0.0 | 0.00 | 0.00 | 0.00 | 30 | 1007.5 |
| 20260901061554 | 65 | 0 | 0.0 | 2.0 | 0.00 | 0.00 | 0.00 | 29 | 1007.5 |
| 20260901061036 | 65 | 0 | 0.0 | 2.0 | 0.00 | 0.00 | 0.00 | 29 | 1007.5 |
| 20260901060540 | 65 | 0 | 0.0 | 0.0 | 0.00 | 0.00 | 0.00 | 29 | 1007.5 |
| 20260901055535 | 66 | 0 | 0.0 | 0.0 | 0.00 | 0.00 | 0.00 | 29 | 1007.5 |
| 20260901055035 | 65 | 0 | 0.0 | 0.0 | 0.00 | 0.00 | 0.00 | 29 | 1007.5 |
| 20260901054558 | 65 | 0 | 0.0 | 0.0 | 0.00 | 0.00 | 0.00 | 29 | 1007.4 |
| 20260901054035 | 65 | 0 | 0.0 | 2.0 | 0.00 | 0.00 | 0.00 | 29 | 1007.5 |
| 20260901053535 | 65 | 0 | 0.0 | 2.0 | 0.00 | 0.00 | 0.00 | 29 | 1007.5 |
| 20260901053052 | 65 | 40 | 0.0 | 2.0 | 0.00 | 0.00 | 0.00 | 29 | 1007.4 |
| 20260901052535 | 65 | 0 | 0.0 | 1.0 | 0.00 | 0.00 | 0.00 | 29 | 1007.4 |
| 20260901052035 | 65 | 0 | 0.0 | 1.0 | 0.00 | 0.00 | 0.00 | 29 | 1007.4 |
| 20260901051549 | 65 | 0 | 0.0 | 1.0 | 0.00 | 0.00 | 0.00 | 29 | 1007.4 |
| 20260901051035 | 65 | 0 | 0.0 | 1.0 | 0.00 | 0.00 | 0.00 | 29 | 1007.4 |
| 20260901050530 | 65 | 0 | 0.0 | 0.0 | 0.00 | 0.00 | 0.00 | 28 | 1007.5 |
| 20260901050056 | 65 | 0 | 0.0 | 0.0 | 0.00 | 0.00 | 0.00 | 28 | 1007.5 |
| 20260901045531 | 65 | 0 | 0.0 | 2.0 | 0.00 | 0.00 | 0.00 | 28 | 1007.6 |
| 20260901045033 | 66 | 0 | 0.0 | 2.0 | 0.00 | 0.00 | 0.00 | 28 | 1007.6 |
| 20260901044550 | 66 | 0 | 0.0 | 4.0 | 0.00 | 0.00 | 0.00 | 28 | 1007.6 |
| 20260901044033 | 66 | 40 | 1.0 | 4.0 | 0.00 | 0.00 | 0.00 | 28 | 1007.7 |
| 20260901043532 | 66 | 0 | 0.0 | 2.0 | 0.00 | 0.00 | 0.00 | 28 | 1007.7 |
| 20260901043052 | 66 | 0 | 0.0 | 2.0 | 0.00 | 0.00 | 0.00 | 28 | 1007.7 |
| 20260901042531 | 65 | 40 | 0.0 | 1.0 | 0.00 | 0.00 | 0.00 | 28 | 1007.8 |
| 20260901042033 | 65 | 0 | 0.0 | 0.0 | 0.00 | 0.00 | 0.00 | 28 | 1007.8 |
| 20260901041608 | 65 | 0 | 0.0 | 0.0 | 0.00 | 0.00 | 0.00 | 28 | 1007.8 |
| 20260901041035 | 66 | 0 | 0.0 | 0.0 | 0.00 | 0.00 | 0.00 | 28 | 1007.9 |
| 20260901040533 | 66 | 0 | 0.0 | 0.0 | 0.00 | 0.00 | 0.00 | 28 | 1007.8 |
| 20260901040109 | 66 | 0 | 0.0 | 0.0 | 0.00 | 0.00 | 0.00 | 27 | 1007.9 |
| 20260901035533 | 66 | 0 | 0.0 | 0.0 | 0.00 | 0.00 | 0.00 | 27 | 1007.8 |
| 20260901035031 | 66 | 0 | 0.0 | 0.0 | 0.00 | 0.00 | 0.00 | 27 | 1007.8 |
| 20260901034555 | 67 | 0 | 0.0 | 0.0 | 0.00 | 0.00 | 0.00 | 27 | 1007.7 |
| 20260901034036 | 67 | 0 | 0.0 | 0.0 | 0.00 | 0.00 | 0.00 | 27 | 1007.7 |
| 20260901033533 | 68 | 0 | 0.0 | 1.0 | 0.00 | 0.00 | 0.00 | 26 | 1007.9 |
| 20260901033049 | 68 | 0 | 0.0 | 1.0 | 0.00 | 0.00 | 0.00 | 26 | 1007.8 |
| 20260901032535 | 68 | 0 | 0.0 | 0.0 | 0.00 | 0.00 | 0.00 | 25 | 1007.9 |
| 20260901032035 | 69 | 0 | 0.0 | 0.0 | 0.00 | 0.00 | 0.00 | 25 | 1007.8 |
| 20260901031552 | 69 | 0 | 0.0 | 0.0 | 0.00 | 0.00 | 0.00 | 25 | 1007.8 |
| 20260901031038 | 70 | 0 | 0.0 | 0.0 | 0.00 | 0.00 | 0.00 | 24 | 1007.9 |
| 20260901030533 | 71 | 0 | 0.0 | 0.0 | 0.00 | 0.00 | 0.00 | 24 | 1007.9 |
| 20260901030054 | 72 | 0 | 0.0 | 0.0 | 0.00 | 0.00 | 0.00 | 23 | 1007.9 |
| 20260901025531 | 73 | 0 | 0.0 | 0.0 | 0.00 | 0.00 | 0.00 | 22 | 1007.8 |
| 20260901025034 | 74 | 0 | 0.0 | 0.0 | 0.00 | 0.00 | 0.00 | 22 | 1007.8 |
| 20260901024553 | 75 | 0 | 0.0 | 1.0 | 0.00 | 0.00 | 0.00 | 22 | 1007.8 |
| 20260901024033 | 75 | 0 | 0.0 | 3.0 | 0.00 | 0.00 | 0.00 | 21 | 1007.7 |
| 20260901023531 | 76 | 0 | 0.0 | 3.0 | 0.00 | 0.00 | 0.00 | 21 | 1007.9 |
| 20260901023052 | 77 | 0 | 0.0 | 4.0 | 0.00 | 0.00 | 0.00 | 20 | 1007.8 |
| 20260901022533 | 78 | 0 | 2.0 | 4.0 | 0.00 | 0.00 | 0.00 | 20 | 1007.9 |
| 20260901022033 | 79 | 40 | 3.0 | 4.0 | 0.00 | 0.00 | 0.00 | 19 | 1007.9 |
| 20260901021556 | 80 | 40 | 3.0 | 6.0 | 0.00 | 0.00 | 0.00 | 18 | 1008.0 |
| 20260901021035 | 82 | 40 | 2.0 | 6.0 | 0.00 | 0.00 | 0.00 | 17 | 1008.0 |
| 20260901020533 | 83 | 40 | 4.0 | 6.0 | 0.00 | 0.00 | 0.00 | 17 | 1008.1 |
| 20260901020059 | 83 | 40 | 3.0 | 6.0 | 0.00 | 0.00 | 0.00 | 17 | 1008.1 |
| 20260901015538 | 84 | 40 | 3.0 | 6.0 | 0.00 | 0.00 | 0.00 | 17 | 1008.1 |
| 20260901015036 | 85 | 40 | 4.0 | 6.0 | 0.00 | 0.00 | 0.00 | 17 | 1008.1 |
| 20260901014554 | 85 | 40 | 3.0 | 7.0 | 0.00 | 0.00 | 0.00 | 16 | 1008.1 |
| 20260901014035 | 86 | 40 | 3.0 | 9.0 | 0.00 | 0.00 | 0.00 | 16 | 1008.2 |
| 20260901013536 | 86 | 40 | 5.0 | 9.0 | 0.00 | 0.00 | 0.00 | 16 | 1008.1 |
| 20260901013102 | 86 | 40 | 6.0 | 10.0 | 0.00 | 0.00 | 0.00 | 16 | 1008.1 |
| 20260901012535 | 86 | 40 | 5.0 | 10.0 | 0.00 | 0.00 | 0.00 | 16 | 1008.2 |
| 20260901012035 | 86 | 40 | 6.0 | 10.0 | 0.00 | 0.00 | 0.00 | 16 | 1008.1 |
| 20260901011559 | 87 | 40 | 6.0 | 12.0 | 0.00 | 0.00 | 0.00 | 15 | 1008.2 |
| 20260901011035 | 87 | 40 | 9.0 | 12.0 | 0.00 | 0.00 | 0.00 | 15 | 1008.2 |
| 20260901010535 | 87 | 49 | 5.0 | 10.0 | 0.00 | 0.00 | 0.00 | 15 | 1008.3 |
| 20260901010104 | 87 | 51 | 3.0 | 7.0 | 0.00 | 0.00 | 0.00 | 15 | 1008.5 |
| 20260901005535 | 87 | 51 | 3.0 | 12.0 | 0.00 | 0.00 | 0.00 | 15 | 1008.6 |
| 20260901005035 | 87 | 51 | 6.0 | 12.0 | 0.00 | 0.00 | 0.00 | 15 | 1008.5 |
| 20260901004556 | 88 | 51 | 1.0 | 9.0 | 0.00 | 0.00 | 0.00 | 15 | 1008.7 |
| 20260901004037 | 88 | 51 | 5.0 | 9.0 | 0.00 | 0.00 | 0.00 | 14 | 1008.7 |
| 20260901003539 | 88 | 51 | 3.0 | 7.0 | 0.00 | 0.00 | 0.00 | 15 | 1008.7 |
| 20260901003052 | 88 | 51 | 0.0 | 5.0 | 0.00 | 0.00 | 0.00 | 14 | 1008.7 |
| 20260901002540 | 88 | 51 | 3.0 | 6.0 | 0.00 | 0.00 | 0.00 | 14 | 1008.7 |
| 20260901002037 | 88 | 0 | 1.0 | 6.0 | 0.00 | 0.00 | 0.00 | 15 | 1008.7 |
| 20260901001549 | 88 | 51 | 4.0 | 6.0 | 0.00 | 0.00 | 0.00 | 15 | 1008.8 |
| 20260901001039 | 88 | 53 | 0.0 | 7.0 | 0.00 | 0.00 | 0.00 | 14 | 1008.8 |
| 20260901000535 | 88 | 53 | 1.0 | 7.0 | 0.00 | 0.00 | 0.00 | 14 | 1008.9 |
| 20260901000105 | 89 | 53 | 3.0 | 7.0 | 0.00 | 0.00 | 0.00 | 14 | 1009.0 |
| 20260831235540 | 89 | 54 | 0.0 | 5.0 | 0.00 | 0.00 | 0.00 | 14 | 1009.2 |
| 20260831235035 | 89 | 54 | 3.0 | 5.0 | 0.00 | 0.00 | 0.00 | 14 | 1009.1 |
| 20260831234552 | 89 | 0 | 1.0 | 9.0 | 0.00 | 0.00 | 0.00 | 14 | 1009.3 |
| 20260831234035 | 88 | 54 | 2.0 | 9.0 | 0.00 | 0.00 | 0.00 | 14 | 1009.3 |
| 20260831233536 | 88 | 54 | 1.0 | 9.0 | 0.00 | 0.00 | 0.00 | 14 | 1009.3 |
| 20260831233052 | 87 | 0 | 4.0 | 9.0 | 0.00 | 0.00 | 0.00 | 14 | 1009.5 |
| 20260831232535 | 87 | 54 | 3.0 | 9.0 | 0.00 | 0.00 | 0.00 | 14 | 1009.5 |
| 20260831232037 | 87 | 51 | 3.0 | 10.0 | 0.00 | 0.00 | 0.00 | 14 | 1009.7 |
| 20260831231550 | 87 | 51 | 4.0 | 10.0 | 0.00 | 0.00 | 0.00 | 15 | 1009.8 |
| 20260831231035 | 87 | 53 | 4.0 | 9.0 | 0.00 | 0.00 | 0.00 | 15 | 1009.8 |
| 20260831230534 | 87 | 61 | 2.0 | 6.0 | 0.00 | 0.00 | 0.00 | 15 | 1010.0 |
| 20260831230059 | 87 | 61 | 2.0 | 9.0 | 0.00 | 0.00 | 0.00 | 16 | 1009.9 |
| 20260831225536 | 87 | 0 | 4.0 | 9.0 | 0.00 | 0.00 | 0.00 | 16 | 1009.9 |
| 20260831225038 | 87 | 61 | 3.0 | 8.0 | 0.00 | 0.00 | 0.00 | 16 | 1010.0 |
| 20260831224555 | 87 | 61 | 2.0 | 8.0 | 0.00 | 0.00 | 0.00 | 16 | 1010.1 |
| 20260831224036 | 86 | 61 | 1.0 | 8.0 | 0.00 | 0.00 | 0.00 | 16 | 1010.2 |
| 20260831223536 | 86 | 61 | 4.0 | 9.0 | 0.00 | 0.00 | 0.00 | 16 | 1010.3 |
| 20260831223059 | 86 | 61 | 5.0 | 11.0 | 0.00 | 0.00 | 0.00 | 16 | 1010.3 |
| 20260831222535 | 86 | 57 | 2.0 | 11.0 | 0.00 | 0.00 | 0.00 | 16 | 1010.4 |
| 20260831222036 | 86 | 57 | 3.0 | 11.0 | 0.00 | 0.00 | 0.00 | 16 | 1010.6 |
| 20260831221552 | 85 | 84 | 6.0 | 11.0 | 0.00 | 0.00 | 0.00 | 16 | 1010.6 |
| 20260831221036 | 85 | 81 | 5.0 | 10.0 | 0.00 | 0.00 | 0.00 | 17 | 1010.7 |
| 20260831220536 | 86 | 66 | 3.0 | 10.0 | 0.00 | 0.00 | 0.00 | 17 | 1010.6 |
| 20260831220059 | 85 | 66 | 5.0 | 10.0 | 0.00 | 0.00 | 0.00 | 17 | 1010.8 |
| 20260831215536 | 86 | 66 | 3.0 | 9.0 | 0.00 | 0.00 | 0.00 | 17 | 1010.8 |
| 20260831215035 | 86 | 0 | 1.0 | 8.0 | 0.00 | 0.00 | 0.00 | 17 | 1010.9 |
| 20260831214558 | 85 | 65 | 1.0 | 8.0 | 0.00 | 0.00 | 0.00 | 17 | 1011.0 |
| 20260831214036 | 85 | 66 | 2.0 | 8.0 | 0.00 | 0.00 | 0.00 | 17 | 1011.1 |
| 20260831213536 | 85 | 65 | 2.0 | 6.0 | 0.00 | 0.00 | 0.00 | 17 | 1011.2 |
| 20260831213054 | 85 | 65 | 2.0 | 9.0 | 0.00 | 0.00 | 0.00 | 18 | 1011.3 |
| 20260831212536 | 85 | 65 | 3.0 | 9.0 | 0.00 | 0.00 | 0.00 | 17 | 1011.2 |
| 20260831212040 | 85 | 65 | 3.0 | 10.0 | 0.00 | 0.00 | 0.00 | 18 | 1011.4 |
| 20260831211558 | 84 | 65 | 5.0 | 11.0 | 0.00 | 0.00 | 0.00 | 18 | 1011.3 |
| 20260831211035 | 84 | 65 | 3.0 | 11.0 | 0.00 | 0.00 | 0.00 | 18 | 1011.4 |
| 20260831210535 | 83 | 65 | 7.0 | 11.0 | 0.00 | 0.00 | 0.00 | 18 | 1011.3 |
| 20260831210053 | 84 | 65 | 5.0 | 9.0 | 0.00 | 0.00 | 0.00 | 18 | 1011.4 |
| 20260831205536 | 83 | 65 | 4.0 | 11.0 | 0.00 | 0.00 | 0.00 | 19 | 1011.5 |
| 20260831205036 | 82 | 66 | 5.0 | 11.0 | 0.00 | 0.00 | 0.00 | 19 | 1011.6 |
| 20260831204551 | 82 | 65 | 4.0 | 10.0 | 0.00 | 0.00 | 0.00 | 19 | 1011.6 |
| 20260831204036 | 82 | 65 | 3.0 | 6.0 | 0.00 | 0.00 | 0.00 | 19 | 1011.7 |
| 20260831203535 | 82 | 65 | 1.0 | 6.0 | 0.00 | 0.00 | 0.00 | 20 | 1011.8 |
| 20260831203048 | 82 | 65 | 2.0 | 9.0 | 0.00 | 0.00 | 0.00 | 20 | 1011.9 |
| 20260831202535 | 82 | 65 | 3.0 | 10.0 | 0.00 | 0.00 | 0.00 | 20 | 1012.0 |
| 20260831202039 | 81 | 65 | 3.0 | 10.0 | 0.00 | 0.00 | 0.00 | 20 | 1012.1 |
| 20260831201558 | 81 | 66 | 5.0 | 9.0 | 0.00 | 0.00 | 0.00 | 20 | 1012.2 |
| 20260831201039 | 81 | 66 | 2.0 | 6.0 | 0.00 | 0.00 | 0.00 | 21 | 1012.2 |
| 20260831200535 | 81 | 65 | 1.0 | 5.0 | 0.00 | 0.00 | 0.00 | 20 | 1012.4 |
| 20260831200100 | 80 | 65 | 0.0 | 9.0 | 0.00 | 0.00 | 0.00 | 20 | 1012.6 |
| 20260831195537 | 80 | 65 | 3.0 | 9.0 | 0.00 | 0.00 | 0.00 | 21 | 1012.8 |
| 20260831195032 | 79 | 65 | 1.0 | 8.0 | 0.00 | 0.00 | 0.00 | 21 | 1012.8 |
| 20260831194617 | 79 | 65 | 2.0 | 10.0 | 0.00 | 0.00 | 0.00 | 21 | 1012.8 |
| 20260831194038 | 79 | 65 | 6.0 | 10.0 | 0.00 | 0.00 | 0.00 | 21 | 1012.9 |
| 20260831193531 | 79 | 65 | 2.0 | 13.0 | 0.00 | 0.00 | 0.00 | 22 | 1012.9 |
| 20260831193051 | 78 | 65 | 4.0 | 13.0 | 0.00 | 0.00 | 0.00 | 23 | 1012.8 |
| 20260831192534 | 78 | 65 | 7.0 | 13.0 | 0.00 | 0.00 | 0.00 | 22 | 1013.1 |
| 20260831192033 | 78 | 65 | 4.0 | 9.0 | 0.00 | 0.00 | 0.00 | 23 | 1013.1 |
| 20260831191551 | 78 | 66 | 3.0 | 8.0 | 0.00 | 0.00 | 0.00 | 23 | 1013.4 |
| 20260831191037 | 77 | 0 | 2.0 | 9.0 | 0.00 | 0.00 | 0.00 | 25 | 1013.6 |
| 20260831190533 | 77 | 65 | 4.0 | 9.0 | 0.00 | 0.00 | 0.00 | 25 | 1013.6 |
| 20260831190101 | 77 | 65 | 3.0 | 9.0 | 0.00 | 0.00 | 0.00 | 26 | 1013.7 |
| 20260831185532 | 76 | 65 | 6.0 | 10.0 | 0.00 | 0.00 | 0.00 | 27 | 1013.7 |
| 20260831185032 | 76 | 65 | 5.0 | 10.0 | 0.00 | 0.00 | 0.00 | 28 | 1013.9 |
| 20260831184555 | 75 | 65 | 3.0 | 9.0 | 0.00 | 0.00 | 0.00 | 28 | 1014.0 |
| 20260831184034 | 75 | 0 | 4.0 | 12.0 | 0.00 | 0.00 | 0.00 | 29 | 1014.1 |
| 20260831183534 | 75 | 65 | 4.0 | 12.0 | 0.00 | 0.00 | 0.00 | 29 | 1014.2 |
| 20260831183101 | 75 | 65 | 7.0 | 12.0 | 0.00 | 0.00 | 0.00 | 29 | 1014.2 |
| 20260831182534 | 74 | 65 | 4.0 | 11.0 | 0.00 | 0.00 | 0.00 | 30 | 1014.3 |
| 20260831182037 | 74 | 65 | 7.0 | 11.0 | 0.00 | 0.00 | 0.00 | 30 | 1014.2 |
| 20260831181559 | 73 | 65 | 6.0 | 11.0 | 0.00 | 0.00 | 0.00 | 31 | 1014.3 |
| 20260831181033 | 73 | 65 | 6.0 | 14.0 | 0.00 | 0.00 | 0.00 | 32 | 1014.4 |
| 20260831180531 | 72 | 65 | 8.0 | 14.0 | 0.00 | 0.00 | 0.00 | 32 | 1014.5 |
| 20260831180100 | 72 | 73 | 7.0 | 12.0 | 0.00 | 0.00 | 0.00 | 32 | 1014.5 |
| 20260831175533 | 72 | 90 | 6.0 | 12.0 | 0.00 | 0.00 | 0.00 | 32 | 1014.5 |
| 20260831175034 | 72 | 97 | 7.0 | 11.0 | 0.00 | 0.00 | 0.00 | 33 | 1014.5 |
| 20260831174553 | 71 | 97 | 5.0 | 11.0 | 0.00 | 0.00 | 0.00 | 33 | 1014.6 |
| 20260831174034 | 71 | 97 | 7.0 | 11.0 | 0.00 | 0.00 | 0.00 | 33 | 1014.6 |
| 20260831173536 | 71 | 97 | 7.0 | 10.0 | 0.00 | 0.00 | 0.00 | 33 | 1014.7 |
| 20260831173100 | 71 | 97 | 5.0 | 9.0 | 0.00 | 0.00 | 0.00 | 34 | 1014.7 |
| 20260831172534 | 70 | 97 | 4.0 | 9.0 | 0.00 | 0.00 | 0.00 | 34 | 1014.7 |
| 20260831172033 | 70 | 97 | 3.0 | 8.0 | 0.00 | 0.00 | 0.00 | 35 | 1014.9 |
| 20260831171558 | 69 | 97 | 3.0 | 8.0 | 0.00 | 0.00 | 0.00 | 36 | 1015.1 |
| 20260831171031 | 69 | 97 | 5.0 | 8.0 | 0.00 | 0.00 | 0.00 | 35 | 1015.0 |
| 20260831170531 | 69 | 97 | 1.0 | 8.0 | 0.00 | 0.00 | 0.00 | 36 | 1015.1 |
| 20260831170055 | 68 | 0 | 4.0 | 9.0 | 0.00 | 0.00 | 0.00 | 36 | 1015.0 |